Location: Duggir?la
(16.3287°N, 80.6293°E)
Time: 09:14:37
(UTC+00:00)

Daily predictions for brighter satellites

Satellite Brightness Start Highest point End
(mag) Time Altitude Azimuth Time Altitude Azimuth Time Altitude Azimuth
Cosmos 2173 Rocket 4.4 12:52:17 10° S 12:58:34 74° W 13:04:55 10° N
Delta 198 4.5 12:56:14 10° W 13:01:35 48° NNW 13:06:04 10° ENE
NOSS 3-1 (C) 3.2 12:56:59 10° SSW 13:02:08 84° WNW 13:07:37 10° NNE
STARLINK-1032 4.2 12:58:19 10° SSW 13:02:11 40° SE 13:06:04 10° NE
Hubble Space Telescope 1.1 13:00:23 10° SW 13:04:25 53° SSE 13:08:27 10° ENE
STARLINK-1011 4.0 13:03:12 10° SSW 13:07:09 46° SE 13:11:07 10° NE
Cosmos 1606 4.2 13:05:59 10° NNW 13:09:32 41° W 13:13:06 10° SSW
YAOGAN 1 2.9 13:07:38 10° SSE 13:11:42 42° ENE 13:15:47 10° N
Envisat 4.3 13:06:59 10° S 13:11:49 46° W 13:16:40 10° NNW
STARLINK-1036 3.8 13:08:06 10° SSW 13:12:07 54° SE 13:16:09 10° NE
Cosmos 1340 4.4 13:10:46 10° ESE 13:12:43 14° E 13:14:35 10° ENE
YAOGAN 6 3.9 13:09:24 10° S 13:12:50 45° W 13:16:14 10° NNW
Cosmos 2082 Rocket 2.8 13:10:05 10° N 13:15:11 35° ENE 13:20:17 10° SE
STARLINK-1044 3.6 13:13:00 10° SSW 13:17:04 63° SE 13:21:09 10° NE
Cosmos 2061 Rocket 4.5 13:14:00 10° S 13:20:23 71° W 13:26:47 10° N
Cosmos 921 Rocket 3.1 13:16:39 10° S 13:20:59 58° E 13:25:23 10° NNE
ATLAS 5 CENTAUR R/B 2.7 13:17:03 10° NNW 13:23:39 85° ENE 13:30:48 10° SSE
Cosmos 1633 Rocket 3.1 13:19:57 10° S 13:24:11 57° E 13:28:26 10° NNE
USA 267 3.7 13:17:47 10° NNE 13:24:11 63° NW 13:30:38 10° SW
Cosmos 1666 Rocket 3.5 13:20:37 10° S 13:25:01 78° E 13:29:29 10° N
Okean-O 4.2 13:22:07 10° S 13:26:15 40° W 13:30:25 10° NNW
STARLINK-1037 3.5 13:22:54 10° SW 13:27:01 85° SE 13:31:00 11° NE
STARLINK-1059 3.6 13:27:51 10° SW 13:31:58 83° NW 13:35:46 12° NE
OAO 3 Copernicus 4.5 13:27:56 10° WNW 13:32:56 74° SW 13:37:57 10° SE
Cosmos 1833 Rocket 2.7 13:27:53 10° NNW 13:33:32 84° WSW 13:39:08 10° SSE
NOSS 2-3 (E) 3.3 13:29:25 10° SSW 13:33:42 76° ESE 13:37:54 10° NNE
CSL-04 Rocket 3.7 13:28:15 10° SSE 13:33:45 69° ENE 13:39:15 10° N
Cosmos 1725 Rocket 4.4 13:30:42 10° SSW 13:36:48 66° W 13:42:55 10° N
STARLINK-1057 3.8 13:32:52 10° SW 13:36:58 72° NW 13:40:35 13° NNE
NOAA 11 4.2 13:34:20 10° SSE 13:39:48 87° WSW 13:45:15 10° NNW
STARLINK-1034 4.0 13:37:51 10° SW 13:41:56 62° NW 13:45:21 14° NNE
Cosmos 1486 Rocket 4.1 13:36:51 10° NNW 13:42:04 80° WSW 13:47:18 10° S
STARLINK-1035 4.5 13:38:10 10° SW 13:42:17 50° NW 13:46:10 11° NNE
CSL-04 Debris 4.1 13:37:01 10° SSE 13:42:25 88° ENE 13:47:51 10° NNW
BLOCK DM-SL R/B 4.1 13:41:21 10° SW 13:43:21 11° SSW 13:44:47 10° SSW
Sakura Rocket 3.4 13:38:03 10° WNW 13:44:25 83° NNE 13:47:14 25° ESE
Centaur D-1AR AC-36 4.0 13:42:47 10° SW 13:44:51 15° SSW 13:47:23 10° SSE
STARLINK-1068 4.3 13:42:52 10° SW 13:46:54 53° NW 13:50:08 15° NNE
NOSS 2-3 (D) 3.6 13:44:03 10° SSW 13:48:19 75° WNW 13:52:06 13° NNE
Cosmos 1816 Rocket 4.5 13:44:51 10° N 13:51:09 67° E 13:57:28 10° SSE
Meteor 1-10 Rocket 4.1 13:45:55 10° N 13:51:27 68° E 13:56:56 10° SSE
Cosmos 1354 Rocket 4.0 13:47:14 10° N 13:52:22 53° ENE 13:57:28 10° SSE
Centaur AC-112 3.5 13:49:58 10° NW 13:52:50 37° NNE 13:54:48 29° ENE
Ariane Rocket 3.3 13:50:38 10° SE 13:55:24 42° ENE 14:00:11 10° N
NOSS 3-1 (A) 4.1 13:51:19 10° SW 13:56:14 44° WNW 14:01:30 10° N
SEDSat Delta rocket 3.9 13:57:17 10° NW 14:01:01 31° NNE 14:01:03 31° NNE
CCE 1 Rocket 4.5 13:53:05 10° WNW 14:01:11 70° SSW 14:03:49 28° SE
GPS 2-15 Rocket1 3.2 13:57:55 10° WNW 14:02:36 61° N 14:03:40 47° ENE
Tsikada Rocket 3.9 13:56:39 10° N 14:03:03 79° E 14:09:27 10° S
Cosmos 1470 Rocket 3.5 14:00:30 10° S 14:04:48 82° W 14:09:07 10° N
HJ-1C 3.6 14:02:13 10° S 14:06:07 58° NNW 14:08:50 10° NNW
GPS 2-04 Rocket1 3.2 14:05:04 10° WSW 14:09:09 54° NNW 14:09:51 47° N
Cosmos 1943 Rocket 4.1 14:10:29 10° SW 14:15:15 28° WNW 14:20:00 10° NNW
CZ-2C R/B 3.7 14:15:06 27° N 14:17:38 85° W 14:22:22 10° SSW
FALCON 9 R/B 3.9 14:10:08 10° WNW 14:22:42 28° N 14:24:37 25° NNE
Intelsat 5-1 Rocket 4.3 14:23:31 10° W 14:29:42 60° N 14:35:19 38° ENE
Cosmos 1346 Rocket 3.8 14:26:07 10° SSW 14:29:59 46° W 14:30:27 44° WNW
SJ-11-01 4.4 14:25:37 10° S 14:30:18 72° WSW 14:34:58 10° NNW
Gbstr 26 Del rocket 3.8 14:29:14 10° SW 14:32:14 43° W 14:32:14 43° W
IRS-1A Rocket 4.2 14:27:37 10° S 14:33:15 80° WSW 14:38:47 10° NNW
Cosmos 2369 Rocket 4.3 14:32:54 10° WSW 14:37:16 23° WNW 14:41:40 10° NNW
Hubble Space Telescope 2.9 14:41:52 10° W 14:43:59 24° WNW 14:43:59 24° WNW
Meteor 1-27 Rocket 4.3 14:43:03 10° NNW 14:48:28 54° W 14:53:58 10° S
CZ-3 R/B 4.3 20:44:51 10° WNW 21:49:31 76° NNE 22:02:36 10° ESE
Cosmos 2278 Rocket 4.0 22:47:14 21° SSE 22:47:14 21° SSE 22:49:02 10° SSE
Palapa B4 Rocket 4.1 22:50:48 76° ENE 22:50:48 76° ENE 22:59:08 10° E
Aurora 2 Rocket 4.5 22:54:35 25° NE 22:54:35 25° NE 22:56:30 10° ENE
Cosmos 407 Rocket 4.0 23:00:33 10° S 23:05:47 60° ESE 23:11:01 10° NNE
FUSE 4.0 23:09:28 68° NNE 23:09:28 68° NNE 23:14:20 10° ENE
Cosmos 1934 Rocket 3.9 23:04:53 10° N 23:11:15 89° W 23:17:36 10° S
Cosmos 1302 Rocket 4.4 23:12:43 51° S 23:12:43 51° S 23:16:39 10° S
Cosmos 1825 3.7 23:13:52 31° SE 23:13:52 31° SE 23:16:02 10° SSE
STARLINK-1011 4.3 23:17:29 48° NE 23:17:34 48° NE 23:21:34 10° SE
SWIFT 3.0 23:20:48 47° NNE 23:20:48 47° NNE 23:24:15 10° ENE
Aureole 1 Rocket 4.1 23:16:44 26° SSW 23:20:33 69° WNW 23:28:21 10° N
STARLINK-1036 4.0 23:22:16 55° NE 23:22:32 56° NE 23:26:36 10° SE
Cosmos 1869 4.5 23:20:32 10° SSE 23:24:21 43° E 23:28:08 10° NNE
Cosmos 2297 4.3 23:20:41 10° N 23:26:12 56° ENE 23:31:43 10° SSE
USA 229 DEB 4.3 23:18:54 10° NNW 23:26:22 66° ENE 23:33:59 10° SE
USA 229 4.3 23:19:00 10° NNW 23:26:28 65° ENE 23:34:03 10° SE
STARLINK-1044 3.8 23:27:02 59° NNE 23:27:30 65° NE 23:31:36 10° SE
USA 267 3.3 23:21:06 10° SE 23:27:37 75° NE 23:32:21 20° NNW
Cosmos 1190 Rocket 3.9 23:23:17 10° SSW 23:28:31 89° ESE 23:33:47 10° NNE
Cosmos 1603 3.8 23:30:49 48° W 23:31:20 50° WNW 23:36:51 10° N
GPS 2-12 Rocket1 3.0 23:30:47 66° WNW 23:31:25 83° N 23:36:06 10° E
NATO 3D Rocket 3.3 23:30:22 52° WSW 23:31:44 88° NNW 23:36:31 10° ENE
ALOS 2.4 23:27:29 10° NNE 23:32:08 72° ESE 23:36:46 10° S
Cosmos 1605 Rocket 3.9 23:26:46 10° N 23:32:55 87° E 23:39:01 10° S
Cosmos 2221 2.3 23:30:40 10° SSW 23:34:53 68° W 23:39:07 10° N
Cosmos 614 Rocket 4.0 23:35:48 47° W 23:36:26 50° WNW 23:41:25 10° N
CZ-3B R/B 3.9 23:36:25 10° SSE 23:37:20 11° SE 23:38:28 10° ESE
STARLINK-1037 3.5 23:36:38 56° NNW 23:37:29 88° ENE 23:41:36 10° SE
Cosmos 1943 3.1 23:32:13 10° SSW 23:37:42 60° WNW 23:43:14 10° N
Atlas Centaur 2 3.1 23:34:57 26° WSW 23:40:13 88° SSE 23:48:46 10° ENE
Cosmos 1727 Rocket 4.0 23:36:14 10° SSW 23:42:18 55° W 23:48:20 10° N
STARLINK-1059 3.5 23:41:24 49° NW 23:42:26 81° SW 23:46:33 10° SSE
FENGYUN 3A 3.6 23:37:32 10° NNE 23:42:59 87° WNW 23:48:25 10° SSW
Cosmos 676 Rocket 4.2 23:40:30 10° S 23:45:44 72° ESE 23:51:02 10° NNE
SJ-12 3.8 23:42:38 10° N 23:46:44 70° WNW 23:50:50 10° SSW
STARLINK-1057 3.5 23:46:13 43° WNW 23:47:24 69° SW 23:51:31 10° SSE
Cosmos 1238 4.2 23:44:53 10° S 23:48:35 85° W 23:51:42 10° N
Cosmos 1408 Rocket 3.5 23:44:46 10° NNW 23:49:06 63° W 23:53:28 10° S
PSLV R/B 4.4 23:46:42 10° SSW 23:50:26 37° W 23:50:27 37° W
STARLINK-1034 3.6 23:50:59 37° WNW 23:52:22 59° SW 23:56:26 10° SSE
CZ-4B DEB 4.1 23:47:54 10° NNE 23:53:22 88° W 23:58:48 10° SSW
STARLINK-1035 4.0 23:54:03 34° W 23:55:19 45° SW 23:59:21 10° SSE
